Luverne, MN

5:03 PM CDT on April 24, 2018 (GMT -0500)
Luverne

Weather History for KLYV - February, 2013

Change the Weather History Date:

Sunday, February 10, 2013

  Actual Average (KPQN) Record (KPQN)
Temperature  
Mean Temperature 30 °F -  
Max Temperature 33 °F 27 °F 57 °F (2017)
Min Temperature 28 °F 11 °F -20 °F (2014)
Degree Days  
Heating Degree Days 34    
Moisture  
Dew Point 29 °F    
Average Humidity 92    
Maximum Humidity 100    
Minimum Humidity 80    
Precipitation  
Precipitation 0.15 in - - ()
Sea Level Pressure  
Sea Level Pressure 29.41 in    
Wind  
Wind Speed 14 mph (ENE)    
Max Wind Speed 25 mph    
Max Gust Speed 34 mph    
Visibility 5 miles    
Events Rain , Snow    
Averages and records for this station are not official NWS values.
T = Trace of Precipitation, MM = Missing Value Source: NWS Daily Summary

Daily Weather History Graph

Daily Weather History Graph

Search for Another Location

Airport or City:

Astronomy

Feb. 10, 2013 Rise Set
Actual Time 7:29 AM CST 5:48 PM CST
Civil Twilight 7:00 AM CST 6:18 PM CST
Nautical Twilight 6:26 AM CST 6:52 PM CST
Astronomical Twilight 5:53 AM CST 7:25 PM CST
Moon 7:17 AM CST (2/10) 6:44 PM CST (2/10)
Length of Visible Light 11h 18m
Length of Day
10h 18m
New Moon, 0% of the Moon is Illuminated
Feb 10
New Moon
Feb 17
First Quarter
Feb 25
Full
Mar 4
Last Quarter
Mar 11
New

Hourly Weather History & Observations

Time (CST) Temp. Windchill Dew Point Humidity Pressure Visibility Wind Dir Wind Speed Gust Speed Precip Events Conditions
12:16 AM 33.8 °F 23.2 °F 30.2 °F 87% 29.71 in 5.0 mi SE 17.3 mph 21.9 mph N/A   Light Drizzle
12:36 AM 32.0 °F 20.8 °F 30.2 °F 93% 29.70 in 5.0 mi SE 17.3 mph 24.2 mph N/A Rain Rain
12:56 AM 32.0 °F 21.2 °F 30.2 °F 93% 29.69 in 4.0 mi SE 16.1 mph 23.0 mph N/A Rain Light Rain
1:16 AM 32.0 °F 21.6 °F 30.2 °F 93% 29.68 in 4.0 mi SE 15.0 mph 21.9 mph N/A   Light Drizzle
1:37 AM 32.0 °F 22.5 °F 30.2 °F 93% 29.66 in 4.0 mi SE 12.7 mph 20.7 mph N/A Rain Light Rain
1:56 AM 32.0 °F 22.1 °F 30.2 °F 93% 29.60 in 4.0 mi East 13.8 mph - N/A   Overcast
2:16 AM 32.0 °F 21.6 °F 32.0 °F 100% 29.62 in 4.0 mi SE 15.0 mph - N/A   Overcast
2:36 AM 32.0 °F 22.1 °F 32.0 °F 100% 29.63 in 5.0 mi SE 13.8 mph 18.4 mph N/A   Overcast
2:56 AM 32.0 °F 22.1 °F 32.0 °F 100% 29.61 in 5.0 mi SE 13.8 mph - N/A   Overcast
3:16 AM 32.0 °F 20.8 °F 32.0 °F 100% 29.59 in 3.0 mi SE 17.3 mph 23.0 mph N/A   Overcast
3:36 AM 33.8 °F 23.5 °F 32.0 °F 93% 29.56 in 5.0 mi SE 16.1 mph 21.9 mph N/A   Overcast
3:56 AM 33.8 °F 23.5 °F 32.0 °F 93% 29.55 in 5.0 mi SE 16.1 mph 20.7 mph N/A Rain Light Rain
4:17 AM 33.8 °F 25.3 °F 32.0 °F 93% 29.52 in 2.0 mi SE 11.5 mph - N/A Rain Light Rain
4:56 AM 32.0 °F 21.6 °F 32.0 °F 100% 29.50 in 2.5 mi ESE 15.0 mph - N/A Snow Light Snow
5:17 AM 32.0 °F 19.8 °F 32.0 °F 100% 29.49 in 4.0 mi SE 20.7 mph 25.3 mph N/A Snow Light Snow
5:36 AM 32.0 °F 22.1 °F 32.0 °F 100% 29.48 in 5.0 mi ESE 13.8 mph 20.7 mph N/A Snow Light Snow
6:17 AM 32.0 °F 23.6 °F 32.0 °F 100% 29.44 in 3.0 mi ESE 10.4 mph 17.3 mph 0.01 in Snow Light Snow
6:36 AM 32.0 °F 23.0 °F 32.0 °F 100% 29.44 in 1.5 mi ESE 11.5 mph - 0.02 in Snow Light Snow
6:56 AM 32.0 °F 22.5 °F 32.0 °F 100% 29.43 in 2.0 mi SE 12.7 mph - N/A Snow Light Snow
7:16 AM 32.0 °F 23.0 °F 32.0 °F 100% 29.42 in 1.8 mi ESE 11.5 mph - 0.01 in Snow Light Snow
7:36 AM 32.0 °F 24.2 °F 32.0 °F 100% 29.41 in 1.2 mi ESE 9.2 mph 17.3 mph 0.02 in Snow Light Snow
7:56 AM 32.0 °F 23.6 °F 32.0 °F 100% 29.39 in 1.2 mi ESE 10.4 mph - N/A Snow Light Snow
8:16 AM 32.0 °F 22.5 °F 32.0 °F 100% 29.38 in 0.8 mi ESE 12.7 mph 17.3 mph 0.01 in Snow Light Snow
8:36 AM 32.0 °F 23.0 °F 32.0 °F 100% 29.37 in 2.0 mi ESE 11.5 mph 18.4 mph 0.01 in Snow Light Snow
8:56 AM 33.8 °F 24.8 °F 32.0 °F 93% 29.36 in 3.0 mi East 12.7 mph 19.6 mph N/A Snow Light Snow
9:16 AM 33.8 °F 26.4 °F 32.0 °F 93% 29.36 in 10.0 mi ESE 9.2 mph 16.1 mph N/A   Overcast
9:36 AM 33.8 °F 25.3 °F 32.0 °F 93% 29.35 in 10.0 mi ESE 11.5 mph 17.3 mph N/A   Overcast
9:56 AM 33.8 °F 25.8 °F 32.0 °F 93% 29.33 in 10.0 mi ESE 10.4 mph - N/A   Overcast
10:16 AM 33.8 °F 25.3 °F 32.0 °F 93% 29.32 in 10.0 mi SE 11.5 mph - N/A   Overcast
10:36 AM 33.8 °F 27.0 °F 32.0 °F 93% 29.31 in 10.0 mi ESE 8.1 mph - N/A   Overcast
10:56 AM 33.8 °F 25.8 °F 32.0 °F 93% 29.30 in 10.0 mi ESE 10.4 mph - N/A   Overcast
11:16 AM 33.8 °F 26.4 °F 32.0 °F 93% 29.29 in 10.0 mi ESE 9.2 mph - N/A   Overcast
11:36 AM 33.8 °F 27.0 °F 32.0 °F 93% 29.28 in 10.0 mi ESE 8.1 mph - N/A   Overcast
11:56 AM 33.8 °F 28.6 °F 32.0 °F 93% 29.26 in 7.0 mi East 5.8 mph - N/A   Overcast
12:16 PM 33.8 °F 29.6 °F 32.0 °F 93% 29.25 in 3.0 mi ESE 4.6 mph - 0.02 in Rain Rain
12:36 PM 33.8 °F 30.8 °F 32.0 °F 93% 29.24 in 4.0 mi East 3.5 mph - 0.03 in Rain Rain
12:57 PM 33.8 °F 29.6 °F 32.0 °F 93% 29.23 in 2.0 mi NNW 4.6 mph - N/A Rain Light Rain
1:16 PM 33.8 °F 28.6 °F 32.0 °F 93% 29.23 in 2.0 mi NNW 5.8 mph - N/A Rain Light Rain
1:36 PM 33.8 °F - 32.0 °F 93% 29.23 in 1.8 mi Calm Calm - 0.01 in Rain Rain
1:56 PM 33.8 °F 29.6 °F 32.0 °F 93% 29.22 in 2.5 mi NNE 4.6 mph - N/A Rain Rain
2:16 PM 32.0 °F 28.7 °F 32.0 °F 100% 29.22 in 0.5 mi North 3.5 mph - 0.04 in Snow Snow
2:36 PM 32.0 °F 26.4 °F 32.0 °F 100% 29.22 in 0.5 mi North 5.8 mph - 0.06 in Snow Light Snow
2:56 PM 33.8 °F 28.6 °F 32.0 °F 93% 29.22 in 2.0 mi North 5.8 mph - N/A   Overcast
3:16 PM 33.8 °F 26.4 °F 32.0 °F 93% 29.23 in 7.0 mi North 9.2 mph - N/A Rain Light Rain
3:36 PM 33.8 °F 25.8 °F 32.0 °F 93% 29.23 in 10.0 mi North 10.4 mph - N/A   Overcast
3:56 PM 33.8 °F 26.4 °F 32.0 °F 93% 29.24 in 10.0 mi North 9.2 mph 16.1 mph N/A   Overcast
4:16 PM 33.8 °F 23.9 °F 32.0 °F 93% 29.25 in 7.0 mi North 15.0 mph 19.6 mph N/A   Overcast
4:36 PM 32.0 °F 20.8 °F 30.2 °F 93% 29.27 in 7.0 mi NNW 17.3 mph 23.0 mph N/A Snow Light Snow
4:56 PM 32.0 °F 19.2 °F 28.4 °F 87% 29.29 in 2.0 mi NNW 23.0 mph 27.6 mph N/A Snow Light Snow
5:16 PM 30.2 °F 17.4 °F 28.4 °F 93% 29.30 in 1.0 mi NNW 20.7 mph 31.1 mph N/A Snow Light Snow
5:36 PM 30.2 °F 17.4 °F 26.6 °F 86% 29.32 in 1.2 mi NNW 20.7 mph 26.5 mph N/A Snow Light Snow
5:56 PM 30.2 °F 16.8 °F 26.6 °F 86% 29.34 in 4.0 mi NNW 23.0 mph 29.9 mph N/A   Overcast
6:16 PM 28.4 °F 14.4 °F 26.6 °F 93% 29.36 in 4.0 mi NNW 23.0 mph 28.8 mph N/A   Overcast
6:37 PM 28.4 °F 14.7 °F 26.6 °F 93% 29.37 in 1.2 mi NNW 21.9 mph 28.8 mph N/A Snow Light Snow
6:56 PM 28.4 °F 15.8 °F 24.8 °F 86% 29.38 in 1.2 mi NW 18.4 mph 27.6 mph N/A Snow Light Snow
7:16 PM 28.4 °F 15.1 °F 24.8 °F 86% 29.40 in 2.0 mi NW 20.7 mph 26.5 mph N/A Snow Light Snow
7:37 PM 28.4 °F 15.4 °F 23.0 °F 80% 29.41 in 5.0 mi NNW 19.6 mph 27.6 mph N/A Snow Light Snow
7:56 PM 28.4 °F 15.4 °F 23.0 °F 80% 29.42 in 7.0 mi NW 19.6 mph 26.5 mph N/A   Overcast
8:16 PM 28.4 °F 15.1 °F 23.0 °F 80% 29.44 in 7.0 mi NW 20.7 mph 27.6 mph N/A   Overcast
8:37 PM 28.4 °F 14.4 °F 23.0 °F 80% 29.45 in 5.0 mi NW 23.0 mph 28.8 mph N/A   Overcast
8:56 PM 28.4 °F 15.8 °F 24.8 °F 86% 29.46 in 2.0 mi NW 18.4 mph 29.9 mph N/A Snow Light Snow
9:16 PM 28.4 °F 14.7 °F 24.8 °F 86% 29.48 in 3.0 mi NW 21.9 mph 27.6 mph N/A Snow Light Snow
9:37 PM 28.4 °F 15.4 °F 23.0 °F 80% 29.49 in 7.0 mi NW 19.6 mph 26.5 mph N/A   Overcast
9:56 PM 28.4 °F 15.8 °F 23.0 °F 80% 29.51 in 10.0 mi NW 18.4 mph 25.3 mph N/A   Overcast
10:16 PM 28.4 °F 15.1 °F 23.0 °F 80% 29.51 in 7.0 mi NW 20.7 mph 27.6 mph N/A   Overcast
10:37 PM 28.4 °F 14.4 °F 23.0 °F 80% 29.52 in 10.0 mi NW 23.0 mph 32.2 mph N/A   Overcast
10:56 PM 28.4 °F 13.8 °F 23.0 °F 80% 29.54 in 10.0 mi NW 25.3 mph 31.1 mph N/A   Overcast
11:16 PM 28.4 °F 14.4 °F 23.0 °F 80% 29.55 in 5.0 mi NW 23.0 mph 33.4 mph N/A Snow Light Snow
11:37 PM 28.4 °F 13.8 °F 23.0 °F 80% 29.57 in 3.0 mi NW 25.3 mph 34.5 mph N/A Snow Light Snow
11:56 PM 28.4 °F 14.4 °F 23.0 °F 80% 29.59 in 1.2 mi NW 23.0 mph 34.5 mph N/A Snow Light Snow